ATS 1 1 02608U 66110A 10208.49318482 +.00000085 +00000-0 +10000-3 0 01078 2 02608 007.2130 308.7308 0004675 180.6397 179.5224 01.00325216076571 ATS 3 1 03029U 67111A 10210.24996622 -.00000095 00000-0 10000-3 0 6732 2 03029 008.8280 315.7305 0015959 055.9049 279.8452 01.00272163156457 DEBUT (ORIZURU) 1 20479U 90013B 10210.60613215 -.00000016 +00000-0 +43496-4 0 06459 2 20479 099.0277 061.9161 0539226 322.3356 034.1117 12.83695682959306 MAQSAT H 1 25023U 97066A 10210.87835731 .00000097 00000-0 10743-2 0 8213 2 25023 007.9531 344.4835 6498391 245.2509 036.4103 03.09494737143985 MAQSAT B 1 25024U 97066B 10210.85002762 .00000053 00000-0 36720-3 0 8735 2 25024 007.9932 340.9808 6511247 251.5761 031.4359 03.08767016143854 TEAMSAT 1 25025U 97066C 10207.89647031 -.00000319 +00000-0 -21171-2 0 08628 2 25025 007.9564 357.8785 6509981 217.7040 071.2608 03.07908400143350 OPAL 1 26063U 00004C 10210.64948187 -.00000016 +00000-0 +14631-4 0 08639 2 26063 100.2129 077.2005 0036884 193.9037 166.1134 14.35901477550425 FALCONSAT 1 26064U 00004D 10210.67789108 +.00000030 +00000-0 +30736-4 0 08223 2 26064 100.2146 074.9951 0037967 201.5524 158.4074 14.35452248550276 PICOSAT 1&2 (TETHERED) 1 26080U 00004H 10210.23644840 +.00000047 +00000-0 +33221-4 0 03917 2 26080 100.1933 103.4632 0032880 135.8474 224.5347 14.40435097550089 PICOSAT 3 1 26091U 00004J 10210.76365012 +.00000175 +00000-0 +68754-4 0 09713 2 26091 100.1852 117.3907 0031793 090.9310 269.5516 14.43598870550227 PICOSAT 4 1 26092U 00004K 10210.61997051 +.00000085 +00000-0 +45071-4 0 08033 2 26092 100.1880 097.5990 0035801 129.8957 230.5374 14.40412016549359 PICOSAT 5 1 26093U 00004L 10210.67098015 +.00000214 +00000-0 +77874-4 0 07064 2 26093 100.1796 125.1108 0033222 070.7548 289.7238 14.45161347550901 PICOSAT 6 1 26094U 00004M 10210.14635162 .00000124 00000-0 58206-4 0 57 2 26094 100.1932 095.0389 0035595 143.7209 216.6404 14.39700043548760 SNAP 1 1 26386U 00033C 10210.67926826 +.00000218 +00000-0 +49797-4 0 00645 2 26386 098.3348 254.5884 0011909 002.3786 357.7446 14.65259300538832 CHAMP 1 26405U 00039B 10211.82583716 .00068318 61370-6 10425-3 0 4892 2 26405 087.2165 145.6060 0004785 107.5323 252.6487 16.04324719574631 PICOSAT 9 1 26930U 01043B 10210.87319367 -.00000007 +00000-0 +29486-4 0 04992 2 26930 067.0007 069.2239 0005298 219.4305 140.6410 14.30075985461033 PROBA 1 1 26958U 01049B 10211.62580263 -.00000098 00000-0 -39454-5 0 9439 2 26958 097.5684 263.3039 0082956 091.5793 269.4943 14.89824965476630 CUTE-1 1 27844U 03031E 10211.61884037 .00000056 00000-0 46282-4 0 9014 2 27844 098.7100 219.9701 0010897 048.1022 312.1076 14.20720296367259 CANX-1 1 27847U 03031H 10211.58177404 .00000024 00000-0 30983-4 0 8190 2 27847 098.7012 220.7656 0010182 029.1229 331.0509 14.21022764367299 CUBESAT XI-IV 1 27848U 03031J 10210.52779533 +.00000042 +00000-0 +39780-4 0 08504 2 27848 098.7145 217.9964 0010812 055.4940 304.7257 14.20511857367055 NAXING 1 1 28221U 04012B 10210.57764113 +.00000277 +00000-0 +35652-4 0 05560 2 28221 097.4551 227.3885 0010474 290.5665 069.4415 14.88041531340890 ST5-A 1 28980U 06008A 10210.73138103 .00006492 00000-0 37229-3 0 3598 2 28980 105.7126 216.7891 2340878 095.0692 291.9214 10.64534447168289 ST5-B 1 28981U 06008B 10210.70819530 +.00012855 +14627-5 +42917-3 0 04367 2 28981 105.6270 246.9039 2295526 059.8907 320.9791 10.81905286169695 ST5-C 1 28982U 06008C 10210.68602713 +.00011379 +13955-5 +44392-3 0 04304 2 28982 105.6636 238.9212 2313638 072.7428 311.2234 10.76109439169227 GENESIS 1 1 29252U 06029A 10210.79516205 +.00000309 +00000-0 +35402-4 0 01112 2 29252 064.5116 131.1229 0021689 340.9424 019.0868 15.03672407222199 FALCONSAT 3 1 30776U 07006E 10210.90757157 +.00000710 +00000-0 +53714-4 0 08903 2 30776 035.4323 144.9160 0000976 246.7748 113.2868 15.03731531186496 GENESIS 2 1 31789U 07028A 10210.90592936 +.00000165 +00000-0 +25229-4 0 08638 2 31789 064.5039 162.4189 0027391 201.2638 158.7341 15.03348837169414 APRIZESAT 4 1 35684U 09041D 10210.73762857 -.00000120 00000-0 -91472-5 0 3244 2 35684 098.0972 111.5559 0048914 267.4972 092.0626 14.76091069 53841 APRIZESAT 3 1 35686U 09041F 10210.69576083 +.00000112 +00000-0 +20559-4 0 03195 2 35686 098.0981 115.2831 0078428 260.8327 098.4036 14.82590023054073 PROBA 2 1 36037U 09059B 10210.57950863 -.00000045 +00000-0 +00000-0 0 02262 2 36037 098.3092 038.1840 0013819 142.8519 217.3637 14.51991867039101